DW7322 Weather Reports


Display with metric or nautical units.
time (UTC)temp
F
wind
direction
speed
MPH
gust
MPH
rain 1hr
in
rain 24hr
in
rain mn
in
humidity
%
barometer
mb
20260508120129 44 136 0.0 1.0 0.00 0.00 0.00 92 1011.9
20260508114526 43 136 0.0 1.0 0.00 0.00 0.00 92 1011.7
20260508113106 42 136 0.0 1.0 0.00 0.00 0.00 93 1011.8
20260508111518 42 145 0.0 1.0 0.00 0.00 0.00 93 1011.6
20260508110019 40 278 0.0 0.0 0.00 0.00 0.00 92 1011.4
20260508104533 40 278 0.0 0.0 0.00 0.00 0.00 92 1011.5
20260508103108 40 279 0.0 0.0 0.00 0.00 0.00 91 1011.5
20260508101515 40 279 0.0 0.0 0.00 0.00 0.00 91 1011.7
20260508100037 40 279 0.0 0.0 0.00 0.00 0.00 91 1011.8
20260508094526 40 279 0.0 0.0 0.00 0.00 0.00 89 1011.7
20260508093045 40 279 0.0 0.0 0.00 0.00 0.00 88 1011.8
20260508091514 40 279 0.0 0.0 0.00 0.00 0.00 85 1012.0
20260508090035 40 278 0.0 0.0 0.00 0.00 0.00 82 1012.0
20260508084531 41 278 0.0 0.0 0.00 0.00 0.00 81 1012.1
20260508083048 42 279 0.0 0.0 0.00 0.00 0.00 79 1012.1
20260508081508 42 279 0.0 1.0 0.00 0.00 0.00 78 1012.3
20260508080001 43 279 0.0 1.0 0.00 0.00 0.00 77 1012.3
20260508074528 43 279 0.0 0.0 0.00 0.00 0.00 76 1012.4
20260508073051 43 279 0.0 0.0 0.00 0.00 0.00 78 1012.5
20260508071519 42 279 0.0 1.0 0.00 0.00 0.00 80 1012.7
20260508070007 43 271 0.0 0.0 0.00 0.00 0.00 80 1012.8
20260508064535 44 271 0.0 0.0 0.00 0.00 0.00 76 1012.8
20260508063102 43 270 0.0 0.0 0.00 0.00 0.00 76 1012.7
20260508061512 43 270 0.0 0.0 0.00 0.00 0.00 78 1012.8
20260508060006 45 270 0.0 0.0 0.00 0.00 0.00 74 1012.7
20260508054529 46 270 0.0 0.0 0.00 0.00 0.00 72 1012.5
20260508053102 45 271 0.0 0.0 0.00 0.00 0.00 75 1012.5
20260508051518 45 270 0.0 0.0 0.00 0.00 0.00 76 1012.4
20260508050011 44 270 0.0 0.0 0.00 0.00 0.00 76 1012.4
20260508044523 45 270 0.0 0.0 0.00 0.00 0.00 74 1012.4
20260508043056 45 270 0.0 0.0 0.00 0.00 0.00 74 1012.3
20260508041511 44 271 0.0 0.0 0.00 0.00 0.00 77 1012.2
20260508040005 45 270 0.0 0.0 0.00 0.00 0.00 77 1012.2
20260508034532 46 261 0.0 1.0 0.00 0.00 0.00 76 1011.9
20260508033050 47 261 0.0 0.0 0.00 0.00 0.00 74 1011.7
20260508031523 46 261 0.0 0.0 0.00 0.00 0.00 76 1011.7
20260508030021 46 261 0.0 0.0 0.00 0.00 0.00 76 1011.7
20260508024544 46 261 0.0 0.0 0.00 0.00 0.00 74 1011.5
20260508023011 47 260 0.0 0.0 0.00 0.00 0.00 72 1011.3
20260508021540 48 261 0.0 0.0 0.00 0.00 0.00 71 1011.3
20260508020104 49 261 0.0 0.0 0.00 0.00 0.00 70 1011.2
20260508014547 50 260 0.0 0.0 0.00 0.00 0.00 70 1010.9
20260508013014 50 261 0.0 0.0 0.00 0.00 0.00 70 1010.7
20260508011542 51 261 0.0 0.0 0.00 0.00 0.00 68 1010.6
20260508004558 54 261 0.0 0.0 0.00 0.00 0.00 61 1010.4
20260508004512 54 261 0.0 0.0 0.00 0.00 0.00 61 1010.4
20260508003025 55 260 0.0 0.0 0.00 0.00 0.00 60 1010.4
20260508001610 56 260 0.0 0.0 0.00 0.00 0.00 61 1010.3
20260508000108 57 261 0.0 0.0 0.00 0.00 0.00 60 1010.3
20260507234505 58 305 0.0 1.0 0.00 0.00 0.00 53 1010.3
20260507233029 58 304 0.0 3.0 0.00 0.00 0.00 52 1010.4
20260507231548 58 297 0.0 4.0 0.00 0.00 0.00 56 1010.5
20260507230112 57 288 0.0 1.0 0.00 0.00 0.00 58 1011.0
20260507224513 59 298 0.0 1.0 0.00 0.00 0.00 56 1010.9
20260507223031 58 294 0.0 2.0 0.00 0.00 0.00 57 1011.3
20260507221552 57 306 0.0 3.0 0.00 0.00 0.00 57 1011.1
20260507220110 57 309 0.0 1.0 0.00 0.00 0.00 55 1011.1
20260507214505 57 309 0.0 1.0 0.00 0.00 0.00 61 1010.9
20260507213032 56 316 0.0 3.0 0.00 0.00 0.00 68 1011.0
20260507211545 58 312 2.0 7.0 0.00 0.00 0.00 50 1010.9
20260507210109 60 308 1.0 5.0 0.00 0.00 0.00 47 1010.7
20260507204507 62 254 1.0 4.0 0.00 0.00 0.00 48 1010.7
20260507203033 63 225 0.0 4.0 0.00 0.00 0.00 48 1010.8
20260507201553 61 324 1.0 5.0 0.00 0.00 0.00 49 1010.9
20260507200111 61 268 0.0 4.0 0.00 0.00 0.00 53 1011.2
20260507194507 63 231 1.0 6.0 0.00 0.00 0.00 49 1011.5
20260507193031 62 200 1.0 5.0 0.00 0.00 0.00 50 1011.8
20260507191545 62 222 3.0 6.0 0.00 0.00 0.00 50 1012.1
20260507190059 60 202 3.0 6.0 0.00 0.00 0.00 54 1012.3
20260507184552 60 248 4.0 8.0 0.00 0.00 0.00 52 1012.5
20260507183016 61 188 4.0 10.0 0.00 0.00 0.00 50 1012.7
20260507181524 60 238 3.0 7.0 0.00 0.00 0.00 52 1013.0
20260507180051 59 224 1.0 8.0 0.00 0.00 0.00 48 1013.1
20260507174547 58 236 2.0 6.0 0.00 0.00 0.00 47 1013.1
20260507173006 58 273 0.0 4.0 0.00 0.00 0.00 47 1013.3
20260507171524 59 245 1.0 6.0 0.00 0.00 0.00 48 1013.6
20260507170052 59 256 1.0 7.0 0.00 0.00 0.00 44 1013.9
20260507164544 58 207 2.0 6.0 0.00 0.00 0.00 44 1014.2
20260507163004 57 236 1.0 6.0 0.00 0.00 0.00 44 1014.6
20260507161527 58 202 1.0 8.0 0.00 0.00 0.00 43 1014.6
20260507160042 57 218 0.0 7.0 0.00 0.00 0.00 45 1014.8
20260507154535 57 209 0.0 4.0 0.00 0.00 0.00 47 1015.1
20260507153051 56 233 1.0 4.0 0.00 0.00 0.00 45 1015.3
20260507151506 55 206 0.0 4.0 0.00 0.00 0.00 44 1015.4
20260507150120 54 191 0.0 2.0 0.00 0.00 0.00 46 1015.6
20260507144510 53 267 0.0 1.0 0.00 0.00 0.00 51 1016.0
20260507143034 52 224 0.0 1.0 0.00 0.00 0.00 52 1016.3
20260507141541 51 256 0.0 1.0 0.00 0.00 0.00 53 1016.5
20260507140107 49 262 0.0 1.0 0.00 0.00 0.00 59 1016.6
20260507134557 48 224 0.0 1.0 0.00 0.00 0.00 57 1016.6
20260507133017 46 248 0.0 1.0 0.00 0.00 0.00 62 1016.7
20260507131548 45 194 0.0 1.0 0.00 0.00 0.00 62 1016.6
20260507130105 43 221 0.0 1.0 0.00 0.00 0.00 67 1016.8
20260507124548 41 221 0.0 1.0 0.00 0.00 0.00 72 1017.1
20260507123057 39 306 0.0 0.0 0.00 0.00 0.00 77 1016.9
20260507121513 36 304 0.0 0.0 0.00 0.00 0.00 85 1016.7